Sidney, NE

5:15 PM MDT on March 23, 2017 (GMT -0600)
Sidney Municipal

Weather History for KSNY - May, 2014

Change the Weather History Date:

Thursday, May 29, 2014

  Actual Average Record
Temperature  
Mean Temperature 70 °F 61 °F  
Max Temperature 88 °F 75 °F 96 °F (2000)
Min Temperature 52 °F 48 °F 32 °F (1954)
Degree Days  
Heating Degree Days 0 5  
Month to date heating degree days 267 241  
Since 1 July heating degree days 6575 6153  
Cooling Degree Days 5 1  
Month to date cooling degree days 11 20  
Year to date cooling degree days 11 21  
Growing Degree Days 20 (Base 50)    
Moisture  
Dew Point 48 °F    
Average Humidity 53    
Maximum Humidity 83    
Minimum Humidity 22    
Precipitation  
Precipitation 0.00 in 0.11 in 2.07 in (1975)
Month to date precipitation 2.26 2.87  
Year to date precipitation 4.26 6.54  
Sea Level Pressure  
Sea Level Pressure 29.88 in    
Wind  
Wind Speed 12 mph (SSE)    
Max Wind Speed 24 mph    
Max Gust Speed 32 mph    
Visibility 10 miles    
Events      
T = Trace of Precipitation, MM = Missing Value Source: NWS Daily Summary

Daily Weather History Graph

Daily Weather History Graph

Search for Another Location

Airport or City:

Trip Planner

Search our weather history database for the weather conditions in past years. The results will help you decide how hot, cold, wet, or windy it might be!

Date:

Astronomy

May. 29, 2014 Rise Set
Actual Time 5:23 AM MDT 8:15 PM MDT
Civil Twilight 4:50 AM MDT 8:48 PM MDT
Nautical Twilight 4:09 AM MDT 9:30 PM MDT
Astronomical Twilight 3:21 AM MDT 10:18 PM MDT
Moon 6:19 AM MDT (5/29) 9:07 PM MDT (5/29)
Length of Visible Light 15h 58m
Length of Day
14h 52m
New Moon, 1% of the Moon is Illuminated
May 29
New Moon
Jun 5
First Quarter
Jun 12
Full
Jun 19
Last Quarter
Jun 27
New

Hourly Weather History & Observations

Time (MDT) Temp. Dew Point Humidity Pressure Visibility Wind Dir Wind Speed Gust Speed Precip Events Conditions
12:53 AM 64.0 °F 48.9 °F 58% 29.91 in 10.0 mi South 10.4 mph - N/A   Clear
2:53 AM 59.0 °F 48.9 °F 69% 29.90 in 10.0 mi SSE 10.4 mph - N/A   Clear
3:53 AM 55.0 °F 48.0 °F 77% 29.91 in 10.0 mi SSW 6.9 mph - N/A   Clear
4:53 AM 55.0 °F 48.0 °F 77% 29.90 in 10.0 mi SSW 8.1 mph - N/A   Clear
5:53 AM 52.0 °F 46.9 °F 83% 29.91 in 10.0 mi Calm Calm - N/A   Clear
6:53 AM 63.0 °F 53.1 °F 70% 29.89 in 10.0 mi SSE 5.8 mph - N/A   Clear
7:53 AM 71.1 °F 50.0 °F 47% 29.90 in 10.0 mi South 10.4 mph - N/A   Clear
8:53 AM 75.9 °F 52.0 °F 43% 29.90 in 10.0 mi South 10.4 mph - N/A   Clear
9:53 AM 79.0 °F 53.1 °F 40% 29.88 in 10.0 mi South 13.8 mph - N/A   Clear
10:53 AM 84.0 °F 50.0 °F 31% 29.87 in 10.0 mi SSE 18.4 mph - N/A   Clear
11:53 AM 86.0 °F 45.0 °F 24% 29.86 in 10.0 mi SSE 19.6 mph 25.3 mph N/A   Clear
12:53 PM 87.1 °F 45.0 °F 23% 29.86 in 10.0 mi SSE 15.0 mph 29.9 mph N/A   Clear
1:53 PM 88.0 °F 46.0 °F 23% 29.84 in 10.0 mi SSE 16.1 mph 23.0 mph N/A   Clear
4:53 PM 87.1 °F 46.9 °F 25% 29.83 in 10.0 mi SSE 16.1 mph 21.9 mph N/A   Clear
6:53 PM 79.0 °F 46.9 °F 32% 29.83 in 10.0 mi SE 10.4 mph - N/A   Clear
7:53 PM 75.0 °F 48.0 °F 38% 29.84 in 10.0 mi SE 11.5 mph - N/A   Clear
8:53 PM 73.0 °F 46.0 °F 38% 29.84 in 10.0 mi SSE 12.7 mph - N/A   Clear
9:53 PM 69.1 °F 46.0 °F 44% 29.87 in 10.0 mi SSE 8.1 mph - N/A   Clear
10:53 PM 70.0 °F 46.0 °F 42% 29.88 in 10.0 mi South 4.6 mph - N/A   Clear
11:53 PM 61.0 °F 48.0 °F 62% 29.89 in 10.0 mi ESE 6.9 mph - N/A   Clear